Regional Weather Roundup
Issued by NWS Northern Indiana

Home | Current Version | Previous Version | Text Only | Print | Product List | Glossary Off
Versions: 1 2 3 4 5 6 7 8 9 10 11 12 13 14 15 16 17 18 19 20 21 22 23 24 25 26 27 28 29 30 31 32 33 34 35 36 37 38 39 40 41 42 43 44 45 46 47 48 49 50

000
ASUS43 KIWX 251210
RWRIWX

KIWX WEATHER ROUNDUP
NATIONAL WEATHER SERVICE NORTHERN INDIANA
800 AM EDT SAT MAR 25 2017

NOTE: "FAIR" INDICATES FEW OR NO CLOUDS BELOW 12,000 FEET WITH NO
SIGNIFICANT WEATHER AND/OR OBSTRUCTIONS TO VISIBILITY.

* THESE STATIONS ARE NOT UNDER NWS QUALITY CONTROL. THEY ALSO MAY NOT
  REPORT WEATHER SUCH AS PRECIPITATION OR FOG.

INZ001>027-251300-
NORTHERN INDIANA

CITY           SKY/WX    TMP DP  RH WIND       PRES   REMARKS
GARY*          LGT RAIN  41  41 100 NW7       30.05R FOG
VALPARAISO     LGT RAIN  43  42  97 E6        30.04S FOG
6HR MIN TEMP:  41; 6HR MAX TEMP:  43; 6HR PCP:  0.08;

MICHIGAN CITY* LGT RAIN  43  43 100 SE3       30.05R
LAPORTE*       DRIZZLE   44  43  97 E5        30.05R
6HR MIN TEMP:  40; 6HR MAX TEMP:  44; 6HR PCP:  0.14;

KNOX*          CLOUDY    43  34  70 NE5       30.04R
SOUTH BEND     CLOUDY    47  47 100 NE5       30.06S FOG
6HR MIN TEMP:  42; 6HR MAX TEMP:  47; 6HR PCP:  0.10;

ELKHART*       CLOUDY    48  46  93 NE8       30.07  FOG
GOSHEN         CLOUDY    54  49  83 NE8       30.06R HAZE
6HR MIN TEMP:  52; 6HR MAX TEMP:  58; 6HR PCP: TRACE;

MONTICELLO*    CLOUDY    51  47  84 E3        30.00S
6HR MIN TEMP:  50; 6HR MAX TEMP:  62;

LOGANSPORT*    CLOUDY    55  50  82 E5        30.03S
ROCHESTER*     CLOUDY    54  52  94 CALM      30.04S
WARSAW*        CLOUDY    54  50  87 CALM      30.05R
ANGOLA*        PTCLDY    55  54  94 CALM      30.07R
FORT WAYNE     CLOUDY    56  51  84 CALM      30.06R
6HR MIN TEMP:  55; 6HR MAX TEMP:  58;

HUNTINGTON*    CLOUDY    59  52  78 S5        30.05R
6HR MIN TEMP:  58; 6HR MAX TEMP:  60;

PERU/GRISSOM   CLOUDY    58  56  93 SE7       30.01R
6HR MIN TEMP:  57; 6HR MAX TEMP:  61;

MARION*        CLOUDY    58  51  79 S7        30.05R
6HR MIN TEMP:  26; 6HR MAX TEMP:  75;


$$
INZ028>050-251300-
CENTRAL INDIANA

CITY           SKY/WX    TMP DP  RH WIND       PRES   REMARKS
LAFAYETTE      CLOUDY    60  53  77 SE7       29.98S
6HR MIN TEMP:  59; 6HR MAX TEMP:  64;

KOKOMO*        CLOUDY    59  53  80 S12       30.04R
6HR MIN TEMP:  55; 6HR MAX TEMP:  63; 6HR PCP: TRACE;

MUNCIE*        CLOUDY    63  51  65 S15       30.06R
6HR MIN TEMP:  62; 6HR MAX TEMP:  64;

INDIANAPOLIS   MOCLDY    60  52  74 SE9       30.03S
6HR MIN TEMP:  59; 6HR MAX TEMP:  63;


$$
MIZ043>046-050>051-056>058-064>065-071>073-077>080-251300-
SOUTHWEST LOWER MICHIGAN

CITY           SKY/WX    TMP DP  RH WIND       PRES   REMARKS
BATTLE CREEK   LGT RAIN  42  40  92 E9        30.12R
6HR MIN TEMP:  41; 6HR MAX TEMP:  46; 6HR PCP:  0.04;

BENTON HARBOR  CLOUDY    47  45  93 E10       30.06R FOG
6HR MIN TEMP:  41; 6HR MAX TEMP:  47; 6HR PCP:  0.16;

COLDWATER*     MOCLDY    46  44  91 NE10      30.09R FOG
6HR MIN TEMP:  46; 6HR MAX TEMP:  52;

HILLSDALE*     CLOUDY    45  41  87 NE6       30.09R
HOLLAND        CLOUDY    40  37  89 E13       30.11R
6HR MIN TEMP:  40; 6HR MAX TEMP:  46; 6HR PCP:  0.02;

GRAND RAPIDS   LGT RAIN  38  35  89 E16       30.13R
6HR MIN TEMP:  38; 6HR MAX TEMP:  42; 6HR PCP:  0.06;

KALAMAZOO      LGT RAIN  43  39  86 NE9G16    30.08F FOG
6HR MIN TEMP:  43; 6HR MAX TEMP:  49; 6HR PCP:  0.03;

STURGIS*       MOCLDY    46  45  94 NE14      30.07R FOG
6HR MIN TEMP:  46; 6HR MAX TEMP:  58;

THREE RIVERS*  CLOUDY    45  44  96 NE10      30.09R FOG
6HR MIN TEMP:  45; 6HR MAX TEMP:  56;


$$
OHZ001>008-015>018-024>025-251300-
NORTHWEST OHIO

CITY           SKY/WX    TMP DP  RH WIND       PRES   REMARKS
WAUSEON*       MOCLDY    46  43  87 E10       30.10R
DEFIANCE       MOCLDY    52  48  86 NE3       30.09R
6HR MIN TEMP:  52; 6HR MAX TEMP:  59;

FINDLAY        MOCLDY    59  51  75 S6        30.08R
6HR MIN TEMP:  59; 6HR MAX TEMP:  64;

TOLEDO EXPRESS CLOUDY    45  40  82 E7        30.11R
6HR MIN TEMP:  45; 6HR MAX TEMP:  63;

TOLEDO METCALF MOCLDY    44  40  85 NE7       30.13R FOG
6HR MIN TEMP:  43; 6HR MAX TEMP:  47;

LIMA           CLOUDY    60  52  74 S8        30.09R
6HR MIN TEMP:  60; 6HR MAX TEMP:  64;


$$
AND FOR LAKE MICHIGAN COASTAL AND OPEN LAKE BUOY OBSERVATIONS

STATION/POSITION TEMP    WIND        PRES    VSBY  WAVE
                 AIR SEA DIR/SP/G                  HT/PER
                 (F)     (DEG/KT/KT) (MB)    (MI)  (FT/S)
CALUMET HARBOR           340/ 11/ 15 1017.0S
MICHIGAN CITY     42     120/  8/  9   N/A
BURNS HARBOR      39     290/  4/  7 1017.9
SAINT JOSEPH      46      90/  4/  7 1016.3

$$
&&



USA.gov is the U.S. government's official web portal to all federal, state and local government web resources and services.